| time (UTC) | temp C | wind direction | speed KPH | gust KPH | rain 1hr cm | rain 24hr cm | rain mn cm | humidity % | barometer mb |
| 20260506084454 | 24 | 180 | 3.2 | 4.8 | 0.00 | 0.00 | 0.00 | 88 | 1007.1 |
| 20260506083950 | 24 | 196 | 3.2 | 4.8 | 0.00 | 0.00 | 0.00 | 88 | 1006.9 |
| 20260506083448 | 24 | 121 | 4.8 | 9.7 | 0.00 | 0.00 | 0.00 | 88 | 1006.9 |
| 20260506082945 | 24 | 166 | 0.0 | 1.6 | 0.00 | 0.00 | 0.00 | 88 | 1007.0 |
| 20260506082442 | 24 | 160 | 0.0 | 0.0 | 0.00 | 0.00 | 0.00 | 88 | 1007.1 |
| 20260506081938 | 24 | 154 | 3.2 | 3.2 | 0.00 | 0.00 | 0.00 | 88 | 1007.1 |
| 20260506081436 | 24 | 142 | 0.0 | 0.0 | 0.00 | 0.00 | 0.00 | 88 | 1007.0 |
| 20260506080933 | 24 | 171 | 1.6 | 3.2 | 0.00 | 0.00 | 0.00 | 88 | 1006.9 |
| 20260506080430 | 24 | 153 | 1.6 | 3.2 | 0.00 | 0.00 | 0.00 | 88 | 1007.0 |
| 20260506073414 | 25 | 170 | 0.0 | 1.6 | 0.00 | 0.00 | 0.00 | 88 | 1007.3 |
| 20260506072911 | 25 | 156 | 1.6 | 1.6 | 0.00 | 0.00 | 0.00 | 87 | 1007.7 |
| 20260506072408 | 25 | 171 | 1.6 | 1.6 | 0.00 | 0.00 | 0.00 | 87 | 1007.4 |
| 20260506071906 | 25 | 135 | 1.6 | 3.2 | 0.00 | 0.00 | 0.00 | 87 | 1007.6 |
| 20260506071404 | 25 | 152 | 0.0 | 0.0 | 0.00 | 0.00 | 0.00 | 87 | 1007.9 |
| 20260506070901 | 25 | 146 | 0.0 | 0.0 | 0.00 | 0.00 | 0.00 | 87 | 1007.8 |
| 20260506070357 | 25 | 154 | 0.0 | 0.0 | 0.00 | 0.00 | 0.00 | 87 | 1007.9 |
| 20260506062335 | 25 | 335 | 4.8 | 4.8 | 0.00 | 0.00 | 0.00 | 86 | 1008.0 |
| 20260506061830 | 25 | 145 | 0.0 | 0.0 | 0.00 | 0.00 | 0.00 | 86 | 1007.9 |
| 20260506061327 | 25 | 158 | 0.0 | 0.0 | 0.00 | 0.00 | 0.00 | 86 | 1007.7 |
| 20260506060826 | 25 | 192 | 1.6 | 1.6 | 0.00 | 0.00 | 0.00 | 86 | 1008.0 |
| 20260506060323 | 25 | 145 | 0.0 | 0.0 | 0.00 | 0.00 | 0.00 | 86 | 1007.8 |
| 20260506051255 | 25 | 164 | 0.0 | 0.0 | 0.00 | 0.00 | 0.00 | 85 | 1008.2 |
| 20260506050753 | 25 | 129 | 4.8 | 9.7 | 0.00 | 0.00 | 0.00 | 85 | 1007.9 |
| 20260506050250 | 25 | 164 | 0.0 | 0.0 | 0.00 | 0.00 | 0.00 | 85 | 1007.9 |
| 20260506044741 | 25 | 183 | 0.0 | 1.6 | 0.00 | 0.00 | 0.00 | 84 | 1007.9 |
| 20260506044238 | 25 | 147 | 1.6 | 3.2 | 0.00 | 0.00 | 0.00 | 84 | 1007.8 |
| 20260506043735 | 25 | 152 | 0.0 | 0.0 | 0.00 | 0.00 | 0.00 | 84 | 1007.9 |
| 20260506043233 | 25 | 159 | 0.0 | 0.0 | 0.00 | 0.00 | 0.00 | 84 | 1007.8 |
| 20260506042731 | 25 | 144 | 1.6 | 4.8 | 0.00 | 0.00 | 0.00 | 84 | 1007.6 |
| 20260506042229 | 25 | 148 | 3.2 | 4.8 | 0.00 | 0.00 | 0.00 | 84 | 1007.5 |
| 20260506041728 | 25 | 265 | 8.0 | 9.7 | 0.00 | 0.00 | 0.00 | 84 | 1007.4 |
| 20260506041224 | 25 | 155 | 0.0 | 0.0 | 0.00 | 0.00 | 0.00 | 84 | 1007.4 |
| 20260506040722 | 25 | 151 | 1.6 | 3.2 | 0.00 | 0.00 | 0.00 | 83 | 1007.3 |
| 20260506040219 | 25 | 157 | 1.6 | 3.2 | 0.00 | 0.00 | 0.00 | 83 | 1007.5 |
| 20260506035715 | 25 | 157 | 3.2 | 3.2 | 0.00 | 0.00 | 0.00 | 83 | 1007.5 |
| 20260506035212 | 25 | 178 | 6.4 | 9.7 | 0.00 | 0.00 | 0.00 | 83 | 1007.3 |
| 20260506034709 | 25 | 162 | 1.6 | 1.6 | 0.00 | 0.00 | 0.00 | 83 | 1007.4 |
| 20260506034206 | 25 | 140 | 0.0 | 0.0 | 0.00 | 0.00 | 0.00 | 82 | 1007.2 |
| 20260506033703 | 25 | 186 | 8.0 | 14.5 | 0.00 | 0.00 | 0.00 | 82 | 1007.3 |
| 20260506033200 | 25 | 141 | 0.0 | 0.0 | 0.00 | 0.00 | 0.00 | 82 | 1007.5 |
| 20260506032657 | 26 | 170 | 0.0 | 0.0 | 0.00 | 0.00 | 0.00 | 82 | 1007.4 |
| 20260506032154 | 26 | 183 | 3.2 | 4.8 | 0.00 | 0.00 | 0.00 | 82 | 1007.4 |
| 20260506031651 | 26 | 169 | 0.0 | 0.0 | 0.00 | 0.00 | 0.00 | 82 | 1007.1 |
| 20260506031148 | 26 | 174 | 0.0 | 0.0 | 0.00 | 0.00 | 0.00 | 82 | 1007.3 |
| 20260506030647 | 26 | 139 | 4.8 | 8.0 | 0.00 | 0.00 | 0.00 | 82 | 1006.9 |
| 20260506030144 | 26 | 178 | 0.0 | 1.6 | 0.00 | 0.00 | 0.00 | 82 | 1007.1 |
| 20260506025640 | 26 | 153 | 0.0 | 0.0 | 0.00 | 0.00 | 0.00 | 81 | 1007.2 |
| 20260506025136 | 26 | 160 | 0.0 | 0.0 | 0.00 | 0.00 | 0.00 | 81 | 1007.0 |
| 20260506024634 | 26 | 162 | 0.0 | 1.6 | 0.00 | 0.00 | 0.00 | 81 | 1007.3 |
| 20260506024130 | 26 | 179 | 0.0 | 0.0 | 0.00 | 0.00 | 0.00 | 81 | 1007.0 |
| 20260506023626 | 26 | 173 | 0.0 | 0.0 | 0.00 | 0.00 | 0.00 | 81 | 1006.8 |
| 20260506023124 | 26 | 116 | 4.8 | 4.8 | 0.00 | 0.00 | 0.00 | 81 | 1006.7 |
| 20260506022621 | 26 | 164 | 4.8 | 4.8 | 0.00 | 0.00 | 0.00 | 81 | 1006.7 |
| 20260506022118 | 26 | 170 | 3.2 | 3.2 | 0.00 | 0.00 | 0.00 | 81 | 1006.6 |
| 20260506021616 | 26 | 161 | 1.6 | 1.6 | 0.00 | 0.00 | 0.00 | 81 | 1006.6 |
| 20260506021113 | 26 | 126 | 0.0 | 0.0 | 0.00 | 0.00 | 0.00 | 81 | 1006.6 |
| 20260506020610 | 26 | 163 | 0.0 | 0.0 | 0.00 | 0.00 | 0.00 | 81 | 1006.5 |
| 20260506020108 | 26 | 182 | 3.2 | 3.2 | 0.00 | 0.00 | 0.00 | 81 | 1006.3 |
| 20260506015605 | 26 | 155 | 0.0 | 0.0 | 0.00 | 0.00 | 0.00 | 81 | 1006.4 |
| 20260506015102 | 26 | 191 | 3.2 | 3.2 | 0.00 | 0.00 | 0.00 | 81 | 1006.3 |
| 20260506014600 | 26 | 159 | 1.6 | 3.2 | 0.00 | 0.00 | 0.00 | 81 | 1006.0 |
| 20260506014055 | 26 | 168 | 3.2 | 4.8 | 0.00 | 0.00 | 0.00 | 81 | 1006.2 |
| 20260506013553 | 26 | 153 | 0.0 | 0.0 | 0.00 | 0.00 | 0.00 | 81 | 1005.8 |
| 20260506013050 | 26 | 162 | 0.0 | 0.0 | 0.00 | 0.00 | 0.00 | 80 | 1005.9 |
| 20260506012546 | 26 | 152 | 0.0 | 0.0 | 0.00 | 0.00 | 0.00 | 80 | 1006.0 |
| 20260506012043 | 26 | 177 | 3.2 | 3.2 | 0.00 | 0.00 | 0.00 | 80 | 1005.7 |
| 20260506011541 | 26 | 220 | 0.0 | 0.0 | 0.00 | 0.00 | 0.00 | 79 | 1005.7 |
| 20260506011036 | 26 | 156 | 0.0 | 0.0 | 0.00 | 0.00 | 0.00 | 79 | 1005.6 |
| 20260506010531 | 26 | 165 | 3.2 | 4.8 | 0.00 | 0.00 | 0.00 | 79 | 1005.5 |
| 20260506010027 | 26 | 218 | 3.2 | 4.8 | 0.00 | 0.00 | 0.00 | 79 | 1005.7 |
| 20260506005524 | 26 | 158 | 0.0 | 0.0 | 0.00 | 0.00 | 0.00 | 79 | 1005.3 |
| 20260506005020 | 26 | 212 | 1.6 | 3.2 | 0.00 | 0.00 | 0.00 | 79 | 1005.6 |
| 20260506004517 | 26 | 146 | 0.0 | 0.0 | 0.00 | 0.00 | 0.00 | 79 | 1005.3 |
| 20260506004014 | 26 | 155 | 0.0 | 0.0 | 0.00 | 0.00 | 0.00 | 79 | 1005.4 |
| 20260506003510 | 27 | 88 | 0.0 | 3.2 | 0.00 | 0.00 | 0.00 | 79 | 1005.1 |
| 20260506003006 | 27 | 152 | 0.0 | 0.0 | 0.00 | 0.00 | 0.00 | 78 | 1005.3 |
| 20260506002502 | 27 | 150 | 0.0 | 0.0 | 0.00 | 0.00 | 0.00 | 78 | 1005.1 |
| 20260506001958 | 27 | 189 | 1.6 | 1.6 | 0.00 | 0.00 | 0.00 | 78 | 1005.2 |
| 20260506001455 | 27 | 210 | 1.6 | 1.6 | 0.00 | 0.00 | 0.00 | 78 | 1005.6 |
| 20260506000952 | 27 | 207 | 0.0 | 1.6 | 0.00 | 0.00 | 0.00 | 78 | 1005.2 |
| 20260506000449 | 27 | 160 | 0.0 | 0.0 | 0.00 | 0.00 | 0.00 | 78 | 1005.2 |
| 20260505235946 | 27 | 155 | 0.0 | 0.0 | 0.00 | 0.00 | 0.00 | 78 | 1005.3 |
| 20260505235445 | 27 | 172 | 0.0 | 0.0 | 0.00 | 0.00 | 0.00 | 78 | 1005.2 |
| 20260505234941 | 27 | 151 | 0.0 | 0.0 | 0.00 | 0.00 | 0.00 | 78 | 1005.3 |
| 20260505234439 | 27 | 158 | 0.0 | 1.6 | 0.00 | 0.00 | 0.00 | 77 | 1005.1 |
| 20260505233935 | 27 | 245 | 3.2 | 3.2 | 0.00 | 0.00 | 0.00 | 77 | 1005.2 |
| 20260505233433 | 27 | 168 | 0.0 | 0.0 | 0.00 | 0.00 | 0.00 | 77 | 1005.4 |
| 20260505232930 | 27 | 172 | 1.6 | 1.6 | 0.00 | 0.00 | 0.00 | 77 | 1005.3 |
| 20260505232428 | 28 | 149 | 0.0 | 0.0 | 0.00 | 0.00 | 0.00 | 77 | 1005.1 |
| 20260505231925 | 28 | 150 | 0.0 | 0.0 | 0.00 | 0.00 | 0.00 | 77 | 1005.2 |
| 20260505231422 | 27 | 139 | 0.0 | 0.0 | 0.00 | 0.00 | 0.00 | 77 | 1005.4 |
| 20260505230920 | 27 | 144 | 6.4 | 8.0 | 0.00 | 0.00 | 0.00 | 76 | 1005.3 |
| 20260505230418 | 28 | 271 | 1.6 | 3.2 | 0.00 | 0.00 | 0.00 | 76 | 1005.4 |
| 20260505225914 | 28 | 10 | 1.6 | 3.2 | 0.00 | 0.00 | 0.00 | 76 | 1005.3 |
| 20260505225411 | 28 | 173 | 0.0 | 1.6 | 0.00 | 0.00 | 0.00 | 76 | 1005.3 |
| 20260505224906 | 28 | 106 | 0.0 | 0.0 | 0.00 | 0.00 | 0.00 | 75 | 1005.3 |
| 20260505224404 | 28 | 272 | 3.2 | 4.8 | 0.00 | 0.00 | 0.00 | 75 | 1005.3 |
| 20260505223901 | 28 | 184 | 3.2 | 4.8 | 0.00 | 0.00 | 0.00 | 75 | 1004.9 |
| 20260505223358 | 28 | 204 | 4.8 | 4.8 | 0.00 | 0.00 | 0.00 | 75 | 1005.2 |
| 20260505222853 | 28 | 199 | 4.8 | 4.8 | 0.00 | 0.00 | 0.00 | 74 | 1005.3 |
| 20260505222350 | 28 | 161 | 1.6 | 1.6 | 0.00 | 0.00 | 0.00 | 74 | 1005.2 |
| 20260505221847 | 28 | 224 | 4.8 | 8.0 | 0.00 | 0.00 | 0.00 | 74 | 1005.1 |
| 20260505221344 | 28 | 154 | 0.0 | 0.0 | 0.00 | 0.00 | 0.00 | 75 | 1005.3 |
| 20260505220841 | 29 | 191 | 9.7 | 12.9 | 0.00 | 0.00 | 0.00 | 73 | 1005.1 |
| 20260505220338 | 29 | 300 | 4.8 | 4.8 | 0.00 | 0.00 | 0.00 | 73 | 1005.3 |
| 20260505215836 | 29 | 191 | 4.8 | 8.0 | 0.00 | 0.00 | 0.00 | 73 | 1005.2 |
| 20260505215333 | 29 | 243 | 3.2 | 4.8 | 0.00 | 0.00 | 0.00 | 74 | 1005.2 |
| 20260505214831 | 29 | 199 | 8.0 | 12.9 | 0.00 | 0.00 | 0.00 | 73 | 1005.5 |
| 20260505214329 | 28 | 182 | 3.2 | 4.8 | 0.00 | 0.00 | 0.00 | 75 | 1005.6 |
| 20260505213825 | 28 | 149 | 0.0 | 1.6 | 0.00 | 0.00 | 0.00 | 74 | 1005.8 |
| 20260505213323 | 29 | 198 | 4.8 | 4.8 | 0.00 | 0.00 | 0.00 | 74 | 1005.8 |
| 20260505212819 | 29 | 167 | 4.8 | 4.8 | 0.00 | 0.00 | 0.00 | 74 | 1005.9 |
| 20260505212317 | 30 | 195 | 6.4 | 11.3 | 0.00 | 0.00 | 0.00 | 72 | 1005.8 |
| 20260505211812 | 29 | 131 | 3.2 | 3.2 | 0.00 | 0.00 | 0.00 | 74 | 1005.8 |
| 20260505211310 | 30 | 240 | 1.6 | 4.8 | 0.00 | 0.00 | 0.00 | 72 | 1005.9 |
| 20260505210806 | 30 | 238 | 1.6 | 3.2 | 0.00 | 0.00 | 0.00 | 73 | 1005.8 |
| 20260505210303 | 29 | 261 | 1.6 | 4.8 | 0.00 | 0.00 | 0.00 | 73 | 1006.0 |
| 20260505205800 | 29 | 268 | 1.6 | 3.2 | 0.00 | 0.00 | 0.00 | 73 | 1006.1 |
| 20260505205259 | 29 | 228 | 3.2 | 4.8 | 0.00 | 0.00 | 0.00 | 74 | 1006.1 |
| 20260505204755 | 29 | 180 | 4.8 | 8.0 | 0.00 | 0.00 | 0.00 | 73 | 1006.1 |
| 20260505204253 | 29 | 296 | 4.8 | 8.0 | 0.00 | 0.00 | 0.00 | 73 | 1006.4 |
| 20260505203750 | 30 | 304 | 1.6 | 3.2 | 0.00 | 0.00 | 0.00 | 73 | 1006.4 |
| 20260505203247 | 29 | 109 | 1.6 | 3.2 | 0.00 | 0.00 | 0.00 | 74 | 1006.7 |
| 20260505202742 | 29 | 147 | 0.0 | 1.6 | 0.00 | 0.00 | 0.00 | 74 | 1006.8 |
| 20260505202239 | 29 | 260 | 6.4 | 11.3 | 0.00 | 0.00 | 0.00 | 73 | 1006.5 |
| 20260505201735 | 29 | 237 | 6.4 | 8.0 | 0.00 | 0.00 | 0.00 | 73 | 1006.8 |
| 20260505201233 | 28 | 183 | 1.6 | 3.2 | 0.00 | 0.00 | 0.00 | 74 | 1006.7 |
| 20260505200732 | 28 | 200 | 1.6 | 1.6 | 0.00 | 0.00 | 0.00 | 74 | 1006.9 |
| 20260505200228 | 29 | 273 | 6.4 | 8.0 | 0.00 | 0.00 | 0.00 | 74 | 1007.2 |
| 20260505195723 | 29 | 282 | 4.8 | 8.0 | 0.00 | 0.00 | 0.00 | 74 | 1006.9 |
| 20260505195221 | 28 | 111 | 0.0 | 0.0 | 0.00 | 0.00 | 0.00 | 75 | 1007.2 |
| 20260505194719 | 30 | 302 | 1.6 | 3.2 | 0.00 | 0.00 | 0.00 | 74 | 1007.1 |
| 20260505194215 | 30 | 158 | 1.6 | 4.8 | 0.00 | 0.00 | 0.00 | 74 | 1007.2 |
| 20260505193710 | 29 | 251 | 4.8 | 8.0 | 0.00 | 0.00 | 0.00 | 74 | 1007.1 |
| 20260505193208 | 28 | 223 | 6.4 | 9.7 | 0.00 | 0.00 | 0.00 | 75 | 1007.0 |
| 20260505192707 | 28 | 265 | 6.4 | 8.0 | 0.00 | 0.00 | 0.00 | 75 | 1007.1 |
| 20260505192204 | 28 | 231 | 6.4 | 8.0 | 0.00 | 0.00 | 0.00 | 75 | 1007.0 |
| 20260505191702 | 28 | 232 | 1.6 | 4.8 | 0.00 | 0.00 | 0.00 | 76 | 1007.1 |
| 20260505191200 | 28 | 266 | 4.8 | 8.0 | 0.00 | 0.00 | 0.00 | 76 | 1007.3 |
| 20260505190656 | 28 | 139 | 4.8 | 8.0 | 0.00 | 0.00 | 0.00 | 75 | 1007.4 |
| 20260505190155 | 28 | 234 | 1.6 | 4.8 | 0.00 | 0.00 | 0.00 | 76 | 1007.3 |
| 20260505185653 | 28 | 155 | 1.6 | 3.2 | 0.00 | 0.00 | 0.00 | 76 | 1007.3 |
| 20260505185149 | 28 | 168 | 1.6 | 3.2 | 0.00 | 0.00 | 0.00 | 76 | 1007.3 |
| 20260505184645 | 28 | 259 | 8.0 | 9.7 | 0.00 | 0.00 | 0.00 | 76 | 1007.3 |
| 20260505184143 | 28 | 274 | 4.8 | 8.0 | 0.00 | 0.00 | 0.00 | 76 | 1007.6 |
| 20260505183639 | 27 | 198 | 4.8 | 8.0 | 0.00 | 0.00 | 0.00 | 76 | 1007.3 |
| 20260505183137 | 27 | 188 | 3.2 | 3.2 | 0.00 | 0.00 | 0.00 | 77 | 1007.7 |
| 20260505182633 | 27 | 161 | 4.8 | 8.0 | 0.00 | 0.00 | 0.00 | 77 | 1007.8 |
| 20260505182130 | 27 | 204 | 4.8 | 4.8 | 0.00 | 0.00 | 0.00 | 77 | 1007.7 |
| 20260505181626 | 27 | 169 | 3.2 | 3.2 | 0.00 | 0.00 | 0.00 | 78 | 1007.7 |
| 20260505181124 | 27 | 216 | 8.0 | 9.7 | 0.00 | 0.00 | 0.00 | 77 | 1007.7 |
| 20260505180620 | 27 | 157 | 1.6 | 3.2 | 0.00 | 0.00 | 0.00 | 78 | 1007.8 |
| 20260505180118 | 27 | 133 | 3.2 | 8.0 | 0.00 | 0.00 | 0.00 | 79 | 1007.7 |
| 20260505175613 | 27 | 151 | 1.6 | 3.2 | 0.00 | 0.00 | 0.00 | 79 | 1007.8 |
| 20260505175110 | 27 | 260 | 0.0 | 0.0 | 0.00 | 0.00 | 0.00 | 79 | 1008.1 |
| 20260505174607 | 27 | 155 | 3.2 | 4.8 | 0.00 | 0.00 | 0.00 | 79 | 1008.0 |
| 20260505174103 | 27 | 136 | 3.2 | 4.8 | 0.00 | 0.00 | 0.00 | 79 | 1007.9 |
| 20260505173559 | 27 | 174 | 1.6 | 3.2 | 0.00 | 0.00 | 0.00 | 79 | 1008.1 |
| 20260505173056 | 27 | 174 | 3.2 | 4.8 | 0.00 | 0.00 | 0.00 | 79 | 1008.0 |
| 20260505172554 | 27 | 253 | 6.4 | 9.7 | 0.00 | 0.00 | 0.00 | 78 | 1007.9 |
| 20260505172050 | 27 | 154 | 3.2 | 8.0 | 0.00 | 0.00 | 0.00 | 78 | 1008.0 |
| 20260505171545 | 27 | 169 | 1.6 | 3.2 | 0.00 | 0.00 | 0.00 | 78 | 1007.9 |
| 20260505171043 | 27 | 253 | 6.4 | 9.7 | 0.00 | 0.00 | 0.00 | 78 | 1007.8 |
| 20260505170539 | 26 | 190 | 4.8 | 8.0 | 0.00 | 0.00 | 0.00 | 79 | 1008.1 |
| 20260505170036 | 26 | 123 | 0.0 | 1.6 | 0.00 | 0.00 | 0.00 | 80 | 1008.3 |
| 20260505165531 | 26 | 258 | 3.2 | 8.0 | 0.00 | 0.00 | 0.00 | 80 | 1008.1 |
| 20260505165027 | 26 | 210 | 0.0 | 0.0 | 0.00 | 0.00 | 0.00 | 80 | 1008.2 |
| 20260505164523 | 26 | 252 | 1.6 | 3.2 | 0.00 | 0.00 | 0.00 | 80 | 1008.4 |
| 20260505164021 | 26 | 230 | 4.8 | 8.0 | 0.00 | 0.00 | 0.00 | 80 | 1008.1 |
| 20260505163519 | 26 | 246 | 1.6 | 4.8 | 0.00 | 0.00 | 0.00 | 81 | 1008.3 |
| 20260505163015 | 25 | 220 | 4.8 | 4.8 | 0.00 | 0.00 | 0.00 | 82 | 1008.2 |
| 20260505162509 | 25 | 267 | 6.4 | 8.0 | 0.00 | 0.00 | 0.00 | 82 | 1008.3 |
| 20260505162006 | 25 | 166 | 4.8 | 4.8 | 0.00 | 0.00 | 0.00 | 82 | 1008.3 |
| 20260505161503 | 25 | 198 | 3.2 | 3.2 | 0.00 | 0.00 | 0.00 | 82 | 1008.3 |
| 20260505161000 | 25 | 234 | 0.0 | 1.6 | 0.00 | 0.00 | 0.00 | 81 | 1008.4 |
| 20260505160458 | 25 | 234 | 1.6 | 3.2 | 0.00 | 0.00 | 0.00 | 82 | 1008.2 |
| 20260505152934 | 25 | 288 | 1.6 | 3.2 | 0.00 | 0.00 | 0.00 | 83 | 1008.1 |
| 20260505152431 | 25 | 166 | 0.0 | 1.6 | 0.00 | 0.00 | 0.00 | 83 | 1007.9 |
| 20260505151926 | 25 | 158 | 3.2 | 3.2 | 0.00 | 0.00 | 0.00 | 83 | 1007.9 |
| 20260505151422 | 25 | 233 | 6.4 | 9.7 | 0.00 | 0.00 | 0.00 | 83 | 1008.0 |
| 20260505150920 | 25 | 169 | 1.6 | 1.6 | 0.00 | 0.00 | 0.00 | 83 | 1007.9 |
| 20260505150416 | 25 | 158 | 1.6 | 4.8 | 0.00 | 0.00 | 0.00 | 83 | 1007.8 |
| 20260505140340 | 23 | 268 | 1.6 | 3.2 | 0.00 | 0.00 | 0.00 | 87 | 1007.9 |
| 20260505130304 | 22 | 204 | 4.8 | 8.0 | 0.00 | 0.00 | 0.00 | 88 | 1007.9 |
| 20260505124754 | 22 | 184 | 1.6 | 1.6 | 0.00 | 0.00 | 0.00 | 88 | 1007.6 |
| 20260505124251 | 22 | 231 | 0.0 | 1.6 | 0.00 | 0.00 | 0.00 | 89 | 1007.6 |
| 20260505123746 | 22 | 147 | 0.0 | 0.0 | 0.00 | 0.00 | 0.00 | 89 | 1007.2 |
| 20260505123244 | 22 | 153 | 1.6 | 3.2 | 0.00 | 0.00 | 0.00 | 89 | 1007.2 |
| 20260505122740 | 22 | 140 | 0.0 | 1.6 | 0.00 | 0.00 | 0.00 | 89 | 1006.9 |
| 20260505122237 | 22 | 151 | 0.0 | 1.6 | 0.00 | 0.00 | 0.00 | 89 | 1007.3 |
| 20260505121734 | 22 | 181 | 0.0 | 1.6 | 0.00 | 0.00 | 0.00 | 89 | 1007.2 |
| 20260505121231 | 22 | 153 | 0.0 | 1.6 | 0.00 | 0.00 | 0.00 | 89 | 1007.3 |
| 20260505120727 | 22 | 135 | 0.0 | 3.2 | 0.00 | 0.00 | 0.00 | 89 | 1007.4 |
| 20260505120223 | 22 | 129 | 0.0 | 0.0 | 0.00 | 0.00 | 0.00 | 89 | 1007.2 |
| 20260505115721 | 22 | 142 | 0.0 | 1.6 | 0.00 | 0.00 | 0.00 | 88 | 1007.3 |
| 20260505115219 | 22 | 170 | 1.6 | 1.6 | 0.00 | 0.00 | 0.00 | 88 | 1007.1 |
| 20260505114717 | 22 | 148 | 0.0 | 0.0 | 0.00 | 0.00 | 0.00 | 88 | 1007.4 |
| 20260505114213 | 22 | 204 | 3.2 | 4.8 | 0.00 | 0.00 | 0.00 | 88 | 1007.0 |
| 20260505113709 | 22 | 158 | 0.0 | 3.2 | 0.00 | 0.00 | 0.00 | 88 | 1007.1 |
| 20260505113206 | 22 | 166 | 3.2 | 8.0 | 0.00 | 0.00 | 0.00 | 88 | 1007.1 |
| 20260505112702 | 22 | 146 | 0.0 | 0.0 | 0.00 | 0.00 | 0.00 | 88 | 1007.1 |
| 20260505112200 | 22 | 162 | 0.0 | 0.0 | 0.00 | 0.00 | 0.00 | 88 | 1007.2 |
| 20260505111700 | 22 | 105 | 0.0 | 1.6 | 0.00 | 0.00 | 0.00 | 88 | 1007.2 |
| 20260505111156 | 22 | 204 | 0.0 | 1.6 | 0.00 | 0.00 | 0.00 | 88 | 1007.0 |
| 20260505110652 | 22 | 168 | 0.0 | 0.0 | 0.00 | 0.00 | 0.00 | 88 | 1007.1 |
| 20260505110149 | 22 | 211 | 0.0 | 0.0 | 0.00 | 0.00 | 0.00 | 88 | 1007.1 |
| 20260505102125 | 21 | 163 | 0.0 | 0.0 | 0.00 | 0.00 | 0.00 | 88 | 1007.1 |
| 20260505101624 | 21 | 140 | 0.0 | 0.0 | 0.00 | 0.00 | 0.00 | 88 | 1007.0 |
| 20260505101120 | 21 | 156 | 0.0 | 1.6 | 0.00 | 0.00 | 0.00 | 88 | 1007.3 |
| 20260505100616 | 21 | 203 | 0.0 | 1.6 | 0.00 | 0.00 | 0.00 | 88 | 1007.5 |
| 20260505100113 | 21 | 240 | 3.2 | 3.2 | 0.00 | 0.00 | 0.00 | 88 | 1007.5 |
| 20260505095609 | 21 | 173 | 0.0 | 0.0 | 0.00 | 0.00 | 0.00 | 88 | 1007.8 |
| 20260505095106 | 21 | 129 | 1.6 | 4.8 | 0.00 | 0.00 | 0.00 | 88 | 1007.6 |
| 20260505094602 | 21 | 156 | 0.0 | 0.0 | 0.00 | 0.00 | 0.00 | 87 | 1007.2 |
| 20260505094058 | 21 | 165 | 0.0 | 0.0 | 0.00 | 0.00 | 0.00 | 87 | 1007.2 |
| 20260505093555 | 21 | 176 | 0.0 | 1.6 | 0.00 | 0.00 | 0.00 | 87 | 1007.4 |
| 20260505093053 | 21 | 33 | 0.0 | 0.0 | 0.00 | 0.00 | 0.00 | 87 | 1007.3 |
| 20260505092550 | 21 | 10 | 1.6 | 1.6 | 0.00 | 0.00 | 0.00 | 87 | 1007.4 |
| 20260505092048 | 21 | 163 | 0.0 | 0.0 | 0.00 | 0.00 | 0.00 | 87 | 1007.5 |
| 20260505091544 | 21 | 189 | 0.0 | 0.0 | 0.00 | 0.00 | 0.00 | 87 | 1007.6 |
| 20260505091043 | 21 | 197 | 1.6 | 4.8 | 0.00 | 0.00 | 0.00 | 87 | 1007.4 |
| 20260505090541 | 21 | 172 | 1.6 | 3.2 | 0.00 | 0.00 | 0.00 | 87 | 1007.4 |
| 20260505090038 | 21 | 156 | 0.0 | 0.0 | 0.00 | 0.00 | 0.00 | 87 | 1007.6 |
| 20260505085536 | 21 | 206 | 0.0 | 0.0 | 0.00 | 0.00 | 0.00 | 87 | 1007.8 |
| 20260505085034 | 21 | 158 | 0.0 | 0.0 | 0.00 | 0.00 | 0.00 | 87 | 1007.7 |